Geneva, Switzerland

7:14 AM CEST on September 30, 2016 (GMT +0200)
Cointrin

Weather History for LSGG - January, 2014

Change the Weather History Date:

Thursday, January 23, 2014

  Actual Average Record
Temperature  
Mean Temperature 38 °F -  
Max Temperature 45 °F 38 °F 51 °F (2001)
Min Temperature 32 °F 28 °F 23 °F (2013)
Degree Days  
Heating Degree Days 26    
Moisture  
Dew Point 35 °F    
Average Humidity 82    
Maximum Humidity 100    
Minimum Humidity 57    
Precipitation  
Precipitation 0.12 in - - ()
Sea Level Pressure  
Sea Level Pressure 30.04 in    
Wind  
Wind Speed 4 mph ()    
Max Wind Speed 14 mph    
Max Gust Speed -    
Visibility 6.8 miles    
Events Rain    
Averages and records for this station are not official NWS values.
T = Trace of Precipitation, MM = Missing Value Source: Averaged Metar Reports

Daily Weather History Graph

Daily Weather History Graph

Search for Another Location

Airport or City:

Trip Planner

Search our weather history database for the weather conditions in past years. The results will help you decide how hot, cold, wet, or windy it might be!

Date:

Astronomy

Jan. 23, 2014 Rise Set
Actual Time 8:08 AM CET 5:26 PM CET
Civil Twilight 7:35 AM CET 5:59 PM CET
Nautical Twilight 6:58 AM CET 6:36 PM CET
Astronomical Twilight 6:23 AM CET 7:11 PM CET
Moon 12:06 AM CET (1/23) 11:08 AM CET (1/23)
Length of Visible Light 10h 24m
Length of Day
9h 18m
Waning Gibbous, 58% of the Moon is Illuminated
Jan 23
Waning Gibbous
Jan 24
Last Quarter
Jan 30
New
Feb 6
First Quarter
Feb 15
Full

Hourly Weather History & Observations

Time (CET) Temp. Windchill Dew Point Humidity Pressure Visibility Wind Dir Wind Speed Gust Speed Precip Events Conditions
12:00 AM 34 °F - 31 °F 85% 30.01 in - Calm Calm - -  
12:20 AM 33.8 °F - 32.0 °F 93% 29.95 in 6.2 mi Calm Calm - N/A   Mostly Cloudy
12:50 AM 33.8 °F - 32.0 °F 93% 29.95 in 6.2 mi Calm Calm - N/A   Mostly Cloudy
1:00 AM 35 °F - 31 °F 81% 30.02 in 7 mi SSW 1.2 mph - -   Mist
1:20 AM 33.8 °F - 33.8 °F 100% 29.95 in 6.2 mi Calm Calm - N/A   Mostly Cloudy
1:50 AM 33.8 °F - 32.0 °F 93% 29.95 in 6.2 mi Variable 1.2 mph - N/A   Mostly Cloudy
2:00 AM 35 °F - 32 °F 83% 30.02 in - West 1.2 mph - -  
2:50 AM 35.6 °F - 33.8 °F 93% 29.98 in 6.2 mi Calm Calm - N/A   Mostly Cloudy
3:00 AM 35 °F - 32 °F 85% 30.03 in - WSW 1.2 mph - -  
3:20 AM 35.6 °F - 33.8 °F 93% 29.98 in 6.2 mi Calm Calm - N/A   Mostly Cloudy
3:50 AM 35.6 °F - 33.8 °F 93% 29.98 in 6.2 mi Calm Calm - N/A   Mostly Cloudy
4:00 AM 36 °F - 33 °F 83% 30.03 in 7 mi WNW 1.2 mph - -   Mist
4:20 AM 35.6 °F - 33.8 °F 93% 29.98 in 6.2 mi Calm Calm - N/A   Mostly Cloudy
4:50 AM 35.6 °F - 33.8 °F 93% 29.98 in 6.2 mi Calm Calm - N/A   Mostly Cloudy
5:00 AM 36 °F - 33 °F 84% 30.04 in - WNW 1.2 mph - -  
5:20 AM 35.6 °F - 33.8 °F 93% 29.98 in 6.2 mi Calm Calm - N/A   Mostly Cloudy
5:50 AM 35.6 °F - 35.6 °F 100% 29.98 in 6.2 mi Calm Calm - N/A   Mostly Cloudy
6:00 AM 37 °F - 34 °F 84% 30.04 in - WSW 2.3 mph - -  
6:20 AM 35.6 °F - 35.6 °F 100% 29.98 in 6.2 mi WSW 2.3 mph - N/A Rain Light Rain
6:50 AM 39.2 °F 37.0 °F 35.6 °F 87% 30.01 in 6.2 mi WSW 3.5 mph - N/A   Mostly Cloudy
7:00 AM 40 °F - 34 °F 72% 30.05 in 9 mi West 2.3 mph - - Rain Light Rain
7:20 AM 39.2 °F 35.0 °F 35.6 °F 87% 30.01 in 6.2 mi SW 5.8 mph - N/A Rain Light Rain
7:50 AM 39.2 °F 35.0 °F 35.6 °F 87% 30.01 in 6.2 mi WSW 5.8 mph - N/A   Mostly Cloudy
8:00 AM 39 °F - 35 °F 80% 30.06 in - WSW 6.9 mph - -  
8:20 AM 39.2 °F 33.6 °F 35.6 °F 87% 30.01 in 6.2 mi WSW 8.1 mph - N/A   Mostly Cloudy
8:50 AM 39.2 °F 33.6 °F 35.6 °F 87% 30.04 in 6.2 mi West 8.1 mph - N/A   Mostly Cloudy
9:00 AM 39 °F - 35 °F 81% 30.08 in - WSW 6.9 mph - -  
9:20 AM 39.2 °F 37.0 °F 37.4 °F 93% 30.04 in 6.2 mi West 3.5 mph - N/A Rain Light Rain Showers
9:50 AM 39.2 °F 35.9 °F 37.4 °F 93% 30.06 in 6.2 mi West 4.6 mph - N/A Rain Light Rain Showers
10:00 AM 40 °F - 36 °F 80% 30.10 in 7 mi WSW 4.6 mph - - Rain Light Rain Showers
10:20 AM 41.0 °F 39.0 °F 37.4 °F 87% 30.06 in 6.2 mi West 3.5 mph - N/A   Mostly Cloudy
10:50 AM 41.0 °F 38.0 °F 37.4 °F 87% 30.06 in 6.2 mi West 4.6 mph - N/A   Mostly Cloudy
11:00 AM 42 °F - 36 °F 72% 30.11 in - WSW 5.8 mph - -  
11:20 AM 42.8 °F 39.3 °F 37.4 °F 81% 30.06 in 6.2 mi WSW 5.8 mph - N/A   Mostly Cloudy
11:50 AM 42.8 °F 37.5 °F 37.4 °F 81% 30.06 in 6.2 mi SW 9.2 mph - N/A   Mostly Cloudy
12:00 PM 43 °F - 37 °F 71% 30.12 in - WSW 8.1 mph - -  
12:20 PM 42.8 °F 38.0 °F 37.4 °F 81% 30.06 in 6.2 mi SW 8.1 mph - N/A Rain Light Rain Showers
12:50 PM 44.6 °F 39.7 °F 37.4 °F 76% 30.06 in 6.2 mi SSW 9.2 mph - N/A   Mostly Cloudy
1:00 PM 44 °F - 35 °F 63% 30.09 in 12 mi SW 9.2 mph - - Rain Light Rain Showers
1:20 PM 44.6 °F 39.2 °F 35.6 °F 71% 30.06 in 6.2 mi SW 10.4 mph - N/A   Mostly Cloudy
1:50 PM 44.6 °F 39.7 °F 37.4 °F 76% 30.04 in 6.2 mi SW 9.2 mph - N/A   Mostly Cloudy
2:00 PM 44 °F - 35 °F 60% 30.08 in - SW 10.4 mph - -  
2:20 PM 44.6 °F 38.8 °F 37.4 °F 76% 30.04 in 6.2 mi SW 11.5 mph - N/A   Mostly Cloudy
2:50 PM 44.6 °F 39.7 °F 37.4 °F 76% 30.04 in 6.2 mi WSW 9.2 mph - N/A   Mostly Cloudy
3:00 PM 46 °F - 36 °F 57% 30.08 in - SW 11.5 mph - -  
3:20 PM 46.4 °F 41.5 °F 37.4 °F 71% 30.04 in 6.2 mi SW 10.4 mph - N/A   Mostly Cloudy
3:50 PM 44.6 °F 38.8 °F 37.4 °F 76% 30.06 in 6.2 mi SW 11.5 mph - N/A   Mostly Cloudy
4:00 PM 44 °F - 35 °F 63% 30.09 in 14 mi SW 12.7 mph - -   Mostly Cloudy
4:20 PM 44.6 °F 39.2 °F 37.4 °F 76% 30.06 in 6.2 mi SSW 10.4 mph - N/A   Mostly Cloudy
4:50 PM 42.8 °F 37.0 °F 37.4 °F 81% 30.06 in 6.2 mi SSW 10.4 mph - N/A   Mostly Cloudy
5:00 PM 43 °F - 35 °F 66% 30.09 in - SSW 10.4 mph - -  
5:20 PM 42.8 °F 38.0 °F 37.4 °F 81% 30.06 in 6.2 mi SW 8.1 mph - N/A   Mostly Cloudy
5:50 PM 42.8 °F 38.0 °F 37.4 °F 81% 30.06 in 6.2 mi WSW 8.1 mph - N/A   Mostly Cloudy
6:00 PM 43 °F - 36 °F 67% 30.11 in - WSW 10.4 mph - -  
6:20 PM 42.8 °F 39.3 °F 37.4 °F 81% 30.06 in 6.2 mi WSW 5.8 mph - N/A Rain Light Rain Showers
6:50 PM 41.0 °F 35.8 °F 37.4 °F 87% 30.06 in 6.2 mi SW 8.1 mph - N/A   Scattered Clouds
7:00 PM 41 °F - 35 °F 70% 30.12 in 22 mi SSW 10.4 mph - -   Mostly Cloudy
7:20 PM 41.0 °F 34.3 °F 35.6 °F 81% 30.06 in 6.2 mi SW 11.5 mph - N/A   Mostly Cloudy
7:50 PM 41.0 °F 35.2 °F 35.6 °F 81% 30.06 in 6.2 mi SSW 9.2 mph - N/A   Scattered Clouds
8:00 PM 40 °F - 35 °F 75% 30.12 in - SSW 10.4 mph - -  
8:20 PM 41.0 °F 34.7 °F 35.6 °F 81% 30.06 in 6.2 mi SSW 10.4 mph - N/A   Mostly Cloudy
8:50 PM 41.0 °F 35.8 °F 35.6 °F 81% 30.04 in 6.2 mi South 8.1 mph - N/A   Mostly Cloudy
9:00 PM 41 °F - 35 °F 71% 30.09 in - SSW 10.4 mph - -  
9:20 PM 41.0 °F 34.7 °F 35.6 °F 81% 30.04 in 6.2 mi SSW 10.4 mph - N/A   Mostly Cloudy
9:50 PM 41.0 °F 34.7 °F 35.6 °F 81% 30.04 in 6.2 mi SW 10.4 mph - N/A   Mostly Cloudy
10:00 PM 40 °F - 35 °F 78% 30.08 in 19 mi WSW 9.2 mph - -   Overcast
10:20 PM 41.0 °F 34.7 °F 37.4 °F 87% 30.04 in 6.2 mi SW 10.4 mph - N/A Rain Light Rain
10:50 PM 41.0 °F 34.3 °F 37.4 °F 87% 30.01 in 5.6 mi SW 11.5 mph - N/A Rain Light Rain
11:00 PM 40 °F - 36 °F 78% 30.06 in - SSW 13.8 mph - -  
11:20 PM 39.2 °F 31.2 °F 35.6 °F 87% 30.01 in 6.2 mi SSW 13.8 mph - N/A Rain Light Rain
11:50 PM 39.2 °F 31.2 °F 35.6 °F 87% 30.01 in 6.2 mi SSW 13.8 mph - N/A Rain Light Rain